Regional Weather Roundup
Issued by NWS

Home | Current Version | Previous Version | Graphics & Text | Print | Product List | Glossary On
Versions: 1 2 3 4 5 6 7 8 9 10 11 12 13 14 15 16 17 18 19 20 21 22 23 24 25 26 27 28 29 30 31 32 33 34 35 36 37 38 39 40 41 42 43 44 45 46 47 48 49 50
000
ASUS43 KDMX 281801
RWRIA

WEATHER ROUNDUP FOR IOWA
NATIONAL WEATHER SERVICE DES MOINES IA
100 PM CDT SUN MAY 28 2017

NOTE: "FAIR" INDICATES FEW OR NO CLOUDS BELOW 12,000 FEET WITH NO
SIGNIFICANT WEATHER AND/OR OBSTRUCTIONS TO VISIBILITY.

* - THESE STATIONS ARE NOT NWS STATIONS...THUS NOT UNDER NWS
QUALITY CONTROL.  THEY ALSO DO NOT REPORT WEATHER SUCH
AS PRECIPITATION OR FOG.

IAZ001>003-012>014-020>022-031>034-043>046-281900-
   NORTHWEST IOWA

CITY           SKY/WX    TMP DP  RH WIND       PRES   REMARKS
CARROLL *      SUNNY     79  46  31 W13G23    29.85F
CHEROKEE *     SUNNY     73  45  36 W13       29.86F
DENISON *      SUNNY     75  45  33 W16G28    29.89S
LE MARS *      SUNNY     73  48  40 NW14G21   29.88F
ORANGE CITY *  SUNNY     72  52  49 NW17G23   29.88S
SHELDON *      MOSUNNY   72  45  37 W13G22    29.86F
SIOUX CITY     MOSUNNY   75  50  41 NW16G26   29.88S
6HR MIN TEMP:  54; 6HR MAX TEMP:  76;

SPENCER        SUNNY     73  46  38 W15G25    29.86S
6HR MIN TEMP:  54; 6HR MAX TEMP:  73;

STORM LAKE *     N/A     73  45  35 W18       29.87S
$$

IAZ055>058-069>071-079>083-090>094-281900-
   SOUTHWEST IOWA

CITY           SKY/WX    TMP DP  RH WIND       PRES   REMARKS
ATLANTIC *     SUNNY     75  54  46 W14       29.89F
AUDUBON *      SUNNY     75  52  43 W10G20    29.88F
CLARINDA *     SUNNY     75  50  41 NW9       29.94S
COUNCIL BLFS * SUNNY     75  50  41 W10G16    29.91F
CRESTON *      SUNNY     73  50  43 W10       29.91F
HARLAN  *      SUNNY     75  50  41 W15G22    29.92F
LAMONI         SUNNY     75  57  53 NW12      29.90S
6HR MIN TEMP:  57; 6HR MAX TEMP:  75;

RED OAK *      SUNNY     75  52  43 NW8G16    29.92S
SHENANDOAH *   SUNNY     75  50  41 W13       29.93S
$$

IAZ047>049-059>061-072>074-084-281900-
   CENTRAL IOWA

CITY           SKY/WX    TMP DP  RH WIND       PRES   REMARKS
AMES           SUNNY     75  52  44 W10       29.84F
6HR MIN TEMP:  57; 6HR MAX TEMP:  75;

ANKENY *       SUNNY     73  52  46 NW9       29.86F
BOONE *        SUNNY     73 -35   1 W12G21    29.83F
CHARITON *     SUNNY     73  54  49 NW13G20   29.88S
DES MOINES     MOSUNNY   77  52  41 W7        29.85F
6HR MIN TEMP:  58; 6HR MAX TEMP:  77;

GRINNELL*      SUNNY     73  54  52 W10G22    29.86R
KNOXVILLE *    SUNNY     73  52  46 NW13G18   29.85S
MARSHALLTOWN   SUNNY     73  54  51 W10       29.82F
6HR MIN TEMP:  56; 6HR MAX TEMP:  73;

NEWTON *       SUNNY     73  52  46 NW12      29.84S
PELLA *        SUNNY     74  52  46 NW13G21   29.87R
PERRY *          N/A     74  49  40 NW12G18   29.86F
$$

IAZ004>006-015-016-023>025-035-036-281900-
   NORTH CENTRAL IOWA

CITY           SKY/WX    TMP DP  RH WIND       PRES   REMARKS
ALGONA *       SUNNY     73  41  31 NW15G23   29.84S
CLARION *      SUNNY     75  41  29 W18G25    29.83S
ESTHERVILLE    PTSUNNY   70  46  42 W17G24    29.84S
6HR MIN TEMP:  55; 6HR MAX TEMP:  71;

FORT DODGE *   SUNNY     75  48  38 NW10G20   29.85S
MASON CITY     SUNNY     74  43  32 NW18G26   29.82F
6HR MIN TEMP:  57; 6HR MAX TEMP:  74;

FOREST CITY *    N/A     73  27  17 NW17G29   29.81F
WEBSTER CITY * SUNNY     75  43  31 NW15G23   29.82S
IOWA FALLS *     N/A     74  45  35 NW10      29.84S
$$

IAZ007>011-017>019-026>030-037>042-050>054-066-281900-
   NORTHEAST IOWA

CITY           SKY/WX    TMP DP  RH WIND       PRES   REMARKS
CEDAR RAPIDS   MOSUNNY   73  55  53 W13       29.80S
6HR MIN TEMP:  57; 6HR MAX TEMP:  73;

CHARLES CITY * SUNNY     73  37  27 NW25G35   29.79F
DECORAH *      SUNNY     72  41  33 NW13G24   29.76S
DUBUQUE        MOSUNNY   72  56  57 W16       29.78S
6HR MIN TEMP:  57; 6HR MAX TEMP:  72;

MONTICELLO *   MOSUNNY   73  57  56 W17G23    29.78F
OELWEIN *      SUNNY     75  43  31 W22G32    29.79F
WATERLOO       SUNNY     74  44  34 W17G23    29.79S
6HR MIN TEMP:  57; 6HR MAX TEMP:  74;

$$

IAZ064-065-067-068-078-281900-
   EAST CENTRAL IOWA

CITY           SKY/WX    TMP DP  RH WIND       PRES   REMARKS
DAVENPORT      MOSUNNY   74  55  51 W10G20    29.80F
6HR MIN TEMP:  60; 6HR MAX TEMP:  74;

IOWA CITY      SUNNY     76  55  48 W15       29.82S
6HR MIN TEMP:  60; 6HR MAX TEMP:  76;

MT. PLEASANT * SUNNY     75  50  41 W10G20    29.83F
MUSCATINE *    SUNNY     75  54  46 NW15G22   29.81S
QUAD CITIES    SUNNY     75  52  44 W9G16     29.79F
6HR MIN TEMP:  63; 6HR MAX TEMP:  76;

$$

IAZ062-063-075>077-085>089-095>099-281900-
   SOUTHEAST IOWA

CITY           SKY/WX    TMP DP  RH WIND       PRES   REMARKS
BURLINGTON     SUNNY     75  57  53 NW13G20   29.82F
6HR MIN TEMP:  60; 6HR MAX TEMP:  76;

FAIRFIELD *    SUNNY     75  54  46 NW14      29.83F
FORT MADISON * SUNNY     77  55  47 W10       29.84F
KEOKUK *       SUNNY     75  54  46 NW14G21   29.84S
OSKALOOSA *      N/A     76  51  41 NW18G30   29.85S
OTTUMWA        SUNNY     76  55  48 W12       29.84F
6HR MIN TEMP:  57; 6HR MAX TEMP:  76;

WASHINGTON *   MOSUNNY   75  54  46 NW17      29.84S
$$

ABBREVIATIONS USED IN REMARKS
   TC - TEMPERATURES IN CELSIUS
  WCI - WIND CHILL INDEX
   HX - HEAT INDEX
  VSB - VISIBILITY
$$




USA.gov is the U.S. government's official web portal to all federal, state and local government web resources and services.